This demonstration page uses our WeatherBlox Daily Observations layout. Learn more.

Left ArrowRight Arrow

39.92423, -83.80882

Hourly Observations for January 25, 2015

Temp ( °F °C ) Dew Point ( °F °C ) Humidity (%) Winds ( mph kmh ) Pressure ( in mb ) Visibility ( mi km ) Precip ( " mm )
12:23 am 00:23 Cloudy 36 2 30 -1 81 81 SW 12 19 29.80 1009 7 11 0.00 0.00
12:56 am 00:56 Cloudy 35 1.6 31 -0.5 86 86 SSW 9 15 29.78 1009 7 11 0.00 0.00
1:35 am 01:35 Cloudy 36 2 30 -1 81 81 SSW 9 15 29.80 1009 7 11 0.00 0.00
1:56 am 01:56 Mostly Cloudy 35 1.6 30 -1.1 82 82 SSW 10 17 29.78 1009 7 11 0.00 0.00
2:56 am 02:56 Mostly Clear 34 1.1 30 -1.1 85 85 S 5 7 29.78 1008 7 11 0.00 0.00
3:56 am 03:56 Partly Cloudy 34 1.1 31 -0.5 89 89 S 8 13 29.76 1008 7 11 0.00 0.00
4:56 am 04:56 Mostly Cloudy with Mist and Fog 34 1.1 31 -0.5 89 89 S 7 11 29.76 1008 6 10 0.00 0.00
5:56 am 05:56 Clear with Mist and Fog 32 0 30 -1.1 92 92 S 7 11 29.76 1008 6 10 0.00 0.00
6:56 am 06:56 Clear with Mist and Fog 32 0 30 -1.1 92 92 S 5 7 29.76 1008 6 10 0.00 0.00
7:56 am 07:56 Sunny with Mist and Fog 31 -0.5 29 -1.6 92 92 SSE 3 6 29.76 1008 5 8 0.00 0.00
8:56 am 08:56 Partly Cloudy with Mist and Fog 33 0.5 31 -0.5 93 93 SSE 5 7 29.77 1008 4 6 0.00 0.00
9:56 am 09:56 Mostly Cloudy with Mist and Fog 34 1.1 32 0 92 92 SSE 5 7 29.77 1008 3 5 0.00 0.00
10:56 am 10:56 Cloudy with Light Wintry Mix 35 1.6 33 0.5 93 93 SSE 6 9 29.80 1009 3 5 0.00 0.03
11:37 am 11:37 Mostly Cloudy with Light Rain 36 2 34 1 93 93 SSE 3 6 29.80 1009 3 5 0.00 0.03
11:49 am 11:49 Mostly Cloudy with Light Rain 36 2 34 1 93 93 SE 6 9 29.77 1008 3 5 0.00 0.03
11:56 am 11:56 Mostly Cloudy with Mist and Fog 36 2.2 35 1.6 96 96 SE 7 11 29.77 1008 3 5 0.00 0.03
12:28 pm 12:28 Mostly Cloudy with Mist and Fog 37 3 36 2 93 93 ESE 8 13 29.77 1008 3 4 0.00 0.00
12:56 pm 12:56 Cloudy with Light Rain 37 2.7 36 2.2 97 97 ESE 8 13 29.74 1007 2 3 0.00 0.03
1:29 pm 13:29 Cloudy with Light Rain 37 3 36 2 93 93 ESE 10 17 29.74 1007 2 3 0.00 0.03
1:41 pm 13:41 Cloudy with Mist and Fog 37 3 36 2 93 93 ESE 10 17 29.74 1007 2 3 0.00 0.03
1:56 pm 13:56 Cloudy with Mist and Fog 37 2.7 36 2.2 97 97 ESE 9 15 29.72 1006 2 3 0.00 0.03
2:03 pm 14:03 Cloudy with Mist and Fog 36 2 36 2 100 100 SE 9 15 29.74 1007 2 3 0.00 0.00
2:14 pm 14:14 Cloudy with Mist and Fog 36 2 36 2 100 100 ESE 10 17 29.74 1007 2 3 0.00 0.00
2:26 pm 14:26 Cloudy with Mist and Fog 36 2 36 2 100 100 ESE 10 17 29.71 1006 2 3 0.00 0.00
2:56 pm 14:56 Cloudy with Mist and Fog 37 2.7 36 2.2 97 97 ESE 10 17 29.71 1006 2 3 0.00 0.03
3:34 pm 15:34 Cloudy with Light Rain 37 3 36 2 93 93 ESE 10 17 29.71 1006 2 3 0.00 0.03
3:56 pm 15:56 Cloudy with Light Rain 37 2.7 36 2.2 97 97 ESE 9 15 29.72 1006 2 3 0.00 0.03
4:18 pm 16:18 Cloudy with Light Rain 36 2 36 2 100 100 ESE 9 15 29.71 1006 2 3 0.01 0.25
4:25 pm 16:25 Cloudy with Light Rain 36 2 36 2 100 100 ESE 9 15 29.71 1006 2 3 0.01 0.25
4:56 pm 16:56 Cloudy with Mist and Fog 36 2.2 35 1.6 96 96 E 9 15 29.72 1006 2 3 0.01 0.25
5:01 pm 17:01 Cloudy with Mist and Fog 36 2 36 2 100 100 ESE 8 13 29.74 1007 2 3 0.00 0.00
5:36 pm 17:36 Cloudy with Light Rain 36 2 34 1 93 93 ESE 7 11 29.74 1007 3 4 0.01 0.25
5:56 pm 17:56 Cloudy with Light Snow 34 1.1 33 0.5 96 96 E 9 15 29.73 1007 2 3 0.01 0.25
6:04 pm 18:04 Cloudy with Light Snow 34 1 34 1 100 100 E 9 15 29.74 1007 2 3 0.00 0.03
6:34 pm 18:34 Cloudy with Light Snow 34 1 32 0 93 93 ESE 8 13 29.74 1007 1 2 0.02 0.51
6:56 pm 18:56 Cloudy with Light Snow 33 0.5 33 0.5 100 100 E 9 15 29.76 1008 1 2 0.03 0.76
7:41 pm 19:41 Cloudy with Light Snow 32 0 32 0 100 100 NE 13 20 29.80 1009 1 2 0.04 1.02
7:56 pm 19:56 Cloudy with Light Snow 29 -1.6 29 -1.6 100 100 NE 9 15 29.78 1009 1 2 0.04 1.02
8:02 pm 20:02 Cloudy with Light Snow 28 -2 28 -2 100 100 NE 14 22 29.80 1009 1 2 0.00 0.03
8:25 pm 20:25 Cloudy with Light Snow 28 -2 28 -2 100 100 NE 13 20 29.80 1009 2 2 0.01 0.25
8:36 pm 20:36 Cloudy with Light Snow 27 -3 27 -3 100 100 NE 13 20 29.83 1010 2 3 0.01 0.25
8:56 pm 20:56 Cloudy with Light Snow 26 -3.3 25 -3.8 96 96 NE 14 22 29.78 1009 3 4 0.01 0.25
9:06 pm 21:06 Cloudy with Light Snow 27 -3 25 -4 93 93 NE 13 20 29.83 1010 3 5 0.00 0.03
9:19 pm 21:19 Cloudy with Light Snow 27 -3 25 -4 93 93 NE 13 20 29.83 1010 3 5 0.00 0.03
9:46 pm 21:46 Cloudy with Light Snow 25 -4 25 -4 100 100 NE 14 22 29.80 1009 2 3 0.00 0.03
9:56 pm 21:56 Cloudy with Light Snow 25 -3.8 24 -4.4 96 96 NE 14 22 29.78 1008 2 2 0.00 0.03
10:33 pm 22:33 Cloudy with Light Snow 25 -4 23 -5 93 93 NE 14 22 29.80 1009 2 3 0.00 0.03
10:46 pm 22:46 Cloudy with Light Snow 25 -4 23 -5 93 93 NE 15 24 29.80 1009 2 2 0.00 0.03
10:56 pm 22:56 Cloudy with Light Snow 24 -4.4 23 -5 96 96 NE 16 26 29.78 1009 1 2 0.00 0.03
11:21 pm 23:21 Cloudy with Light Snow 25 -4 21 -6 86 86 NE 15 24 29.80 1009 1 2 0.00 0.03
11:36 pm 23:36 Cloudy with Light Snow 25 -4 21 -6 86 86 NE 16 26 29.80 1009 2 2 0.00 0.03
11:56 pm 23:56 Cloudy with Light Snow 23 -5 22 -5.5 96 96 NE 15 24 29.78 1009 2 2 0.00 0.03

Powered by AerisWeather